Year,Month,Day,Hour,Minute,Value (Times are PST for temperature in C)
2020,04,11,00,00,8.60
2020,04,11,00,01,8.60
2020,04,11,00,02,8.60
2020,04,11,00,03,8.50
2020,04,11,00,04,8.50
2020,04,11,00,05,8.50
2020,04,11,00,06,8.50
2020,04,11,00,07,8.50
2020,04,11,00,08,8.50
2020,04,11,00,09,8.50
2020,04,11,00,10,8.40
2020,04,11,00,11,8.40
2020,04,11,00,12,8.40
2020,04,11,00,13,8.30
2020,04,11,00,14,8.30
2020,04,11,00,15,8.20
2020,04,11,00,16,8.20
2020,04,11,00,17,8.20
2020,04,11,00,18,8.10
2020,04,11,00,19,8.10
2020,04,11,00,20,8.10
2020,04,11,00,21,8.10
2020,04,11,00,22,8.10
2020,04,11,00,23,8.00
2020,04,11,00,24,8.00
2020,04,11,00,25,8.00
2020,04,11,00,26,8.00
2020,04,11,00,27,8.00
2020,04,11,00,28,7.90
2020,04,11,00,29,7.90
2020,04,11,00,30,7.90
2020,04,11,00,31,7.90
2020,04,11,00,32,7.90
2020,04,11,00,33,7.90
2020,04,11,00,34,7.80
2020,04,11,00,35,7.90
2020,04,11,00,36,7.80
2020,04,11,00,37,7.80
2020,04,11,00,38,7.80
2020,04,11,00,39,7.80
2020,04,11,00,40,7.80
2020,04,11,00,41,7.80
2020,04,11,00,42,7.80
2020,04,11,00,43,7.90
2020,04,11,00,44,7.90
2020,04,11,00,45,8.00
2020,04,11,00,46,8.00
2020,04,11,00,47,8.00
2020,04,11,00,48,8.10
2020,04,11,00,49,8.10
2020,04,11,00,50,8.10
2020,04,11,00,51,8.20
2020,04,11,00,52,8.20
2020,04,11,00,53,8.20
2020,04,11,00,54,8.30
2020,04,11,00,55,8.30
2020,04,11,00,56,8.40
2020,04,11,00,57,8.40
2020,04,11,00,58,8.50
2020,04,11,00,59,8.50
2020,04,11,01,00,8.60
2020,04,11,01,01,8.60
2020,04,11,01,02,8.60
2020,04,11,01,03,8.60
2020,04,11,01,04,8.60
2020,04,11,01,05,8.50
2020,04,11,01,06,8.50
2020,04,11,01,07,8.40
2020,04,11,01,08,8.40
2020,04,11,01,09,8.40
2020,04,11,01,10,8.30
2020,04,11,01,11,8.30
2020,04,11,01,12,8.30
2020,04,11,01,13,8.20
2020,04,11,01,14,8.20
2020,04,11,01,15,8.20
2020,04,11,01,16,8.20
2020,04,11,01,17,8.20
2020,04,11,01,18,8.20
2020,04,11,01,19,8.30
2020,04,11,01,20,8.30
2020,04,11,01,21,8.30
2020,04,11,01,22,8.30
2020,04,11,01,23,8.40
2020,04,11,01,24,8.40
2020,04,11,01,25,8.40
2020,04,11,01,26,8.40
2020,04,11,01,27,8.40
2020,04,11,01,28,8.40
2020,04,11,01,29,8.40
2020,04,11,01,30,8.40
2020,04,11,01,31,8.40
2020,04,11,01,32,8.50
2020,04,11,01,33,8.50
2020,04,11,01,34,8.50
2020,04,11,01,35,8.50
2020,04,11,01,36,8.60
2020,04,11,01,37,8.60
2020,04,11,01,38,8.60
2020,04,11,01,39,8.60
2020,04,11,01,40,8.60
2020,04,11,01,41,8.70
2020,04,11,01,42,8.70
2020,04,11,01,43,8.70
2020,04,11,01,44,8.80
2020,04,11,01,45,8.80
2020,04,11,01,46,8.90
2020,04,11,01,47,8.90
2020,04,11,01,48,8.90
2020,04,11,01,49,9.00
2020,04,11,01,50,9.00
2020,04,11,01,51,9.10
2020,04,11,01,52,9.10
2020,04,11,01,53,9.10
2020,04,11,01,54,9.20
2020,04,11,01,55,9.20
2020,04,11,01,56,9.20
2020,04,11,01,57,9.20
2020,04,11,01,58,9.20
2020,04,11,01,59,9.30
2020,04,11,02,00,9.30
2020,04,11,02,01,9.30
2020,04,11,02,02,9.30
2020,04,11,02,03,9.30
2020,04,11,02,04,9.30
2020,04,11,02,05,9.30
2020,04,11,02,06,9.30
2020,04,11,02,07,9.30
2020,04,11,02,08,9.20
2020,04,11,02,09,9.20
2020,04,11,02,10,9.20
2020,04,11,02,11,9.20
2020,04,11,02,12,9.20
2020,04,11,02,13,9.20
2020,04,11,02,14,9.20
2020,04,11,02,15,9.20
2020,04,11,02,16,9.20
2020,04,11,02,17,9.20
2020,04,11,02,18,9.20
2020,04,11,02,19,9.20
2020,04,11,02,20,9.20
2020,04,11,02,21,9.10
2020,04,11,02,22,9.10
2020,04,11,02,23,9.10
2020,04,11,02,24,9.10
2020,04,11,02,25,9.10
2020,04,11,02,26,9.10
2020,04,11,02,27,9.10
2020,04,11,02,28,9.10
2020,04,11,02,29,9.10
2020,04,11,02,30,9.00
2020,04,11,02,31,9.00
2020,04,11,02,32,9.00
2020,04,11,02,33,9.00
2020,04,11,02,34,9.00
2020,04,11,02,35,8.90
2020,04,11,02,36,8.90
2020,04,11,02,37,8.90
2020,04,11,02,38,8.90
2020,04,11,02,39,8.90
2020,04,11,02,40,8.90
2020,04,11,02,41,8.80
2020,04,11,02,42,8.80
2020,04,11,02,43,8.80
2020,04,11,02,44,8.80
2020,04,11,02,45,8.80
2020,04,11,02,46,8.70
2020,04,11,02,47,8.70
2020,04,11,02,48,8.70
2020,04,11,02,49,8.70
2020,04,11,02,50,8.60
2020,04,11,02,51,8.60
2020,04,11,02,52,8.50
2020,04,11,02,53,8.50
2020,04,11,02,54,8.40
2020,04,11,02,55,8.40
2020,04,11,02,56,8.40
2020,04,11,02,57,8.40
2020,04,11,02,58,8.40
2020,04,11,02,59,8.30
2020,04,11,03,00,8.30
2020,04,11,03,01,8.30
2020,04,11,03,02,8.30
2020,04,11,03,03,8.30
2020,04,11,03,04,8.30
2020,04,11,03,05,8.20
2020,04,11,03,06,8.20
2020,04,11,03,07,8.20
2020,04,11,03,08,8.20
2020,04,11,03,09,8.20
2020,04,11,03,10,8.20
2020,04,11,03,11,8.10
2020,04,11,03,12,8.10
2020,04,11,03,13,8.10
2020,04,11,03,14,8.00
2020,04,11,03,15,8.00
2020,04,11,03,16,8.00
2020,04,11,03,17,7.90
2020,04,11,03,18,7.90
2020,04,11,03,19,7.90
2020,04,11,03,20,7.90
2020,04,11,03,21,7.80
2020,04,11,03,22,7.80
2020,04,11,03,23,7.80
2020,04,11,03,24,7.80
2020,04,11,03,25,7.80
2020,04,11,03,26,7.70
2020,04,11,03,27,7.70
2020,04,11,03,28,7.70
2020,04,11,03,29,7.70
2020,04,11,03,30,7.70
2020,04,11,03,31,7.70
2020,04,11,03,32,7.70
2020,04,11,03,33,7.70
2020,04,11,03,34,7.70
2020,04,11,03,35,7.70
2020,04,11,03,36,7.70
2020,04,11,03,37,7.70
2020,04,11,03,38,7.70
2020,04,11,03,39,7.70
2020,04,11,03,40,7.70
2020,04,11,03,41,7.70
2020,04,11,03,42,7.70
2020,04,11,03,43,7.70
2020,04,11,03,44,7.70
2020,04,11,03,45,7.80
2020,04,11,03,46,7.80
2020,04,11,03,47,7.80
2020,04,11,03,48,7.80
2020,04,11,03,49,7.80
2020,04,11,03,50,7.80
2020,04,11,03,51,7.80
2020,04,11,03,52,7.80
2020,04,11,03,53,7.80
2020,04,11,03,54,7.80
2020,04,11,03,55,7.80
2020,04,11,03,56,7.80
2020,04,11,03,57,7.90
2020,04,11,03,58,7.90
2020,04,11,03,59,7.90
2020,04,11,04,00,7.90
2020,04,11,04,01,8.00
2020,04,11,04,02,8.00
2020,04,11,04,03,8.00
2020,04,11,04,04,8.00
2020,04,11,04,05,8.10
2020,04,11,04,06,8.10
2020,04,11,04,07,8.10
2020,04,11,04,08,8.10
2020,04,11,04,09,8.10
2020,04,11,04,10,8.10
2020,04,11,04,11,8.10
2020,04,11,04,12,8.10
2020,04,11,04,13,8.10
2020,04,11,04,14,8.10
2020,04,11,04,15,8.10
2020,04,11,04,16,8.10
2020,04,11,04,17,8.10
2020,04,11,04,18,8.10
2020,04,11,04,19,8.20
2020,04,11,04,20,8.20
2020,04,11,04,21,8.20
2020,04,11,04,22,8.20
2020,04,11,04,23,8.20
2020,04,11,04,24,8.10
2020,04,11,04,25,8.10
2020,04,11,04,26,8.10
2020,04,11,04,27,8.10
2020,04,11,04,28,8.10
2020,04,11,04,29,8.10
2020,04,11,04,30,8.10
2020,04,11,04,31,8.10
2020,04,11,04,32,8.10
2020,04,11,04,33,8.10
2020,04,11,04,34,8.10
2020,04,11,04,35,8.10
2020,04,11,04,36,8.10
2020,04,11,04,37,8.10
2020,04,11,04,38,8.00
2020,04,11,04,39,8.00
2020,04,11,04,40,8.00
2020,04,11,04,41,8.00
2020,04,11,04,42,8.00
2020,04,11,04,43,8.00
2020,04,11,04,44,8.00
2020,04,11,04,45,8.00
2020,04,11,04,46,7.90
2020,04,11,04,47,7.90
2020,04,11,04,48,7.90
2020,04,11,04,49,7.90
2020,04,11,04,50,7.90
2020,04,11,04,51,7.90
2020,04,11,04,52,7.90
2020,04,11,04,53,7.90
2020,04,11,04,54,7.90
2020,04,11,04,55,7.90
2020,04,11,04,56,7.90
2020,04,11,04,57,7.90
2020,04,11,04,58,7.90
2020,04,11,04,59,7.90
2020,04,11,05,00,7.90
2020,04,11,05,01,7.90
2020,04,11,05,02,7.90
2020,04,11,05,03,7.90
2020,04,11,05,04,7.80
2020,04,11,05,05,7.80
2020,04,11,05,06,7.80
2020,04,11,05,07,7.80
2020,04,11,05,08,7.70
2020,04,11,05,09,7.70
2020,04,11,05,10,7.70
2020,04,11,05,11,7.70
2020,04,11,05,12,7.60
2020,04,11,05,13,7.60
2020,04,11,05,14,7.60
2020,04,11,05,15,7.60
2020,04,11,05,16,7.60
2020,04,11,05,17,7.60
2020,04,11,05,18,7.60
2020,04,11,05,19,7.60
2020,04,11,05,20,7.60
2020,04,11,05,21,7.60
2020,04,11,05,22,7.60
2020,04,11,05,23,7.60
2020,04,11,05,24,7.60
2020,04,11,05,25,7.60
2020,04,11,05,26,7.60
2020,04,11,05,27,7.60
2020,04,11,05,28,7.60
2020,04,11,05,29,7.60
2020,04,11,05,30,7.60
2020,04,11,05,31,7.60
2020,04,11,05,32,7.60
2020,04,11,05,33,7.60
2020,04,11,05,34,7.60
2020,04,11,05,35,7.60
2020,04,11,05,36,7.60
2020,04,11,05,37,7.60
2020,04,11,05,38,7.70
2020,04,11,05,39,7.70
2020,04,11,05,40,7.70
2020,04,11,05,41,7.70
2020,04,11,05,42,7.80
2020,04,11,05,43,7.80
2020,04,11,05,44,7.90
2020,04,11,05,45,7.90
2020,04,11,05,46,7.90
2020,04,11,05,47,7.90
2020,04,11,05,48,8.00
2020,04,11,05,49,8.00
2020,04,11,05,50,8.10
2020,04,11,05,51,8.10
2020,04,11,05,52,8.10
2020,04,11,05,53,8.10
2020,04,11,05,54,8.20
2020,04,11,05,55,8.20
2020,04,11,05,56,8.20
2020,04,11,05,57,8.20
2020,04,11,05,58,8.20
2020,04,11,05,59,8.20
2020,04,11,06,00,8.20
2020,04,11,06,01,8.20
2020,04,11,06,02,8.20
2020,04,11,06,03,8.20
2020,04,11,06,04,8.20
2020,04,11,06,05,8.20
2020,04,11,06,06,8.20
2020,04,11,06,07,8.20
2020,04,11,06,08,8.20
2020,04,11,06,09,8.20
2020,04,11,06,10,8.20
2020,04,11,06,11,8.20
2020,04,11,06,12,8.20
2020,04,11,06,13,8.30
2020,04,11,06,14,8.30
2020,04,11,06,15,8.30
2020,04,11,06,16,8.30
2020,04,11,06,17,8.30
2020,04,11,06,18,8.30
2020,04,11,06,19,8.30
2020,04,11,06,20,8.30
2020,04,11,06,21,8.30
2020,04,11,06,22,8.30
2020,04,11,06,23,8.30
2020,04,11,06,24,8.30
2020,04,11,06,25,8.30
2020,04,11,06,26,8.40
2020,04,11,06,27,8.40
2020,04,11,06,28,8.40
2020,04,11,06,29,8.40
2020,04,11,06,30,8.40
2020,04,11,06,31,8.40
2020,04,11,06,32,8.40
2020,04,11,06,33,8.40
2020,04,11,06,34,8.40
2020,04,11,06,35,8.40
2020,04,11,06,36,8.40
2020,04,11,06,37,8.40
2020,04,11,06,38,8.40
2020,04,11,06,39,8.40
2020,04,11,06,40,8.40
2020,04,11,06,41,8.40
2020,04,11,06,42,8.50
2020,04,11,06,43,8.50
2020,04,11,06,44,8.50
2020,04,11,06,45,8.50
2020,04,11,06,46,8.50
2020,04,11,06,47,8.50
2020,04,11,06,48,8.50
2020,04,11,06,49,8.50
2020,04,11,06,50,8.50
2020,04,11,06,51,8.50
2020,04,11,06,52,8.50
2020,04,11,06,53,8.50
2020,04,11,06,54,8.60
2020,04,11,06,55,8.60
2020,04,11,06,56,8.60
2020,04,11,06,57,8.60
2020,04,11,06,58,8.60
2020,04,11,06,59,8.60
2020,04,11,07,00,8.60
2020,04,11,07,01,8.60
2020,04,11,07,02,8.60
2020,04,11,07,03,8.60
2020,04,11,07,04,8.60
2020,04,11,07,05,8.60
2020,04,11,07,06,8.70
2020,04,11,07,07,8.70
2020,04,11,07,08,8.70
2020,04,11,07,09,8.70
2020,04,11,07,10,8.70
2020,04,11,07,11,8.70
2020,04,11,07,12,8.70
2020,04,11,07,13,8.70
2020,04,11,07,14,8.70
2020,04,11,07,15,8.70
2020,04,11,07,16,8.80
2020,04,11,07,17,8.80
2020,04,11,07,18,8.80
2020,04,11,07,19,8.80
2020,04,11,07,20,8.80
2020,04,11,07,21,8.80
2020,04,11,07,22,8.90
2020,04,11,07,23,8.90
2020,04,11,07,24,8.90
2020,04,11,07,25,8.90
2020,04,11,07,26,8.90
2020,04,11,07,27,8.90
2020,04,11,07,28,9.00
2020,04,11,07,29,9.00
2020,04,11,07,30,9.00
2020,04,11,07,31,9.10
2020,04,11,07,32,9.10
2020,04,11,07,33,9.10
2020,04,11,07,34,9.10
2020,04,11,07,35,9.20
2020,04,11,07,36,9.20
2020,04,11,07,37,9.20
2020,04,11,07,38,9.20
2020,04,11,07,39,9.20
2020,04,11,07,40,9.30
2020,04,11,07,41,9.30
2020,04,11,07,42,9.30
2020,04,11,07,43,9.30
2020,04,11,07,44,9.30
2020,04,11,07,45,9.30
2020,04,11,07,46,9.40
2020,04,11,07,47,9.40
2020,04,11,07,48,9.40
2020,04,11,07,49,9.40
2020,04,11,07,50,9.40
2020,04,11,07,51,9.50
2020,04,11,07,52,9.50
2020,04,11,07,53,9.50
2020,04,11,07,54,9.60
2020,04,11,07,55,9.60
2020,04,11,07,56,9.60
2020,04,11,07,57,9.70
2020,04,11,07,58,9.70
2020,04,11,07,59,9.70
2020,04,11,08,00,9.70
2020,04,11,08,01,9.70
2020,04,11,08,02,9.70
2020,04,11,08,03,9.80
2020,04,11,08,04,9.80
2020,04,11,08,05,9.80
2020,04,11,08,06,9.80
2020,04,11,08,07,9.80
2020,04,11,08,08,9.80
2020,04,11,08,09,9.80
2020,04,11,08,10,9.90
2020,04,11,08,11,9.90
2020,04,11,08,12,9.90
2020,04,11,08,13,9.90
2020,04,11,08,14,9.90
2020,04,11,08,15,9.90
2020,04,11,08,16,10.00
2020,04,11,08,17,10.00
2020,04,11,08,18,10.00
2020,04,11,08,19,10.10
2020,04,11,08,20,10.10
2020,04,11,08,21,10.10
2020,04,11,08,22,10.10
2020,04,11,08,23,10.10
2020,04,11,08,24,10.20
2020,04,11,08,25,10.20
2020,04,11,08,26,10.20
2020,04,11,08,27,10.20
2020,04,11,08,28,10.20
2020,04,11,08,29,10.20
2020,04,11,08,30,10.20
2020,04,11,08,31,10.20
2020,04,11,08,32,10.20
2020,04,11,08,33,10.20
2020,04,11,08,34,10.20
2020,04,11,08,35,10.20
2020,04,11,08,36,10.20
2020,04,11,08,37,10.20
2020,04,11,08,38,10.20
2020,04,11,08,39,10.20
2020,04,11,08,40,10.20
2020,04,11,08,41,10.30
2020,04,11,08,42,10.30
2020,04,11,08,43,10.30
2020,04,11,08,44,10.40
2020,04,11,08,45,10.40
2020,04,11,08,46,10.40
2020,04,11,08,47,10.40
2020,04,11,08,48,10.40
2020,04,11,08,49,10.40
2020,04,11,08,50,10.40
2020,04,11,08,51,10.40
2020,04,11,08,52,10.50
2020,04,11,08,53,10.50
2020,04,11,08,54,10.60
2020,04,11,08,55,10.60
2020,04,11,08,56,10.60
2020,04,11,08,57,10.60
2020,04,11,08,58,10.60
2020,04,11,08,59,10.70
2020,04,11,09,00,10.70
2020,04,11,09,01,10.70
2020,04,11,09,02,10.70
2020,04,11,09,03,10.80
2020,04,11,09,04,10.80
2020,04,11,09,05,10.80
2020,04,11,09,06,10.80
2020,04,11,09,07,10.80
2020,04,11,09,08,10.80
2020,04,11,09,09,10.80
2020,04,11,09,10,10.80
2020,04,11,09,11,10.80
2020,04,11,09,12,10.70
2020,04,11,09,13,10.70
2020,04,11,09,14,10.80
2020,04,11,09,15,10.80
2020,04,11,09,16,10.80
2020,04,11,09,17,10.90
2020,04,11,09,18,10.90
2020,04,11,09,19,10.90
2020,04,11,09,20,10.90
2020,04,11,09,21,10.90
2020,04,11,09,22,10.90
2020,04,11,09,23,10.80
2020,04,11,09,24,10.80
2020,04,11,09,25,10.70
2020,04,11,09,26,10.60
2020,04,11,09,27,10.60
2020,04,11,09,28,10.60
2020,04,11,09,29,10.70
2020,04,11,09,30,10.70
2020,04,11,09,31,10.70
2020,04,11,09,32,10.70
2020,04,11,09,33,10.80
2020,04,11,09,34,10.80
2020,04,11,09,35,10.80
2020,04,11,09,36,10.80
2020,04,11,09,37,10.80
2020,04,11,09,38,10.80
2020,04,11,09,39,10.80
2020,04,11,09,40,10.80
2020,04,11,09,41,10.80
2020,04,11,09,42,10.80
2020,04,11,09,43,10.80
2020,04,11,09,44,10.90
2020,04,11,09,45,10.90
2020,04,11,09,46,10.90
2020,04,11,09,47,10.90
2020,04,11,09,48,10.90
2020,04,11,09,49,10.90
2020,04,11,09,50,10.90
2020,04,11,09,51,10.90
2020,04,11,09,52,10.90
2020,04,11,09,53,10.90
2020,04,11,09,54,10.80
2020,04,11,09,55,10.80
2020,04,11,09,56,10.80
2020,04,11,09,57,10.90
2020,04,11,09,58,10.90
2020,04,11,09,59,10.90
2020,04,11,10,00,10.90
2020,04,11,10,01,10.90
2020,04,11,10,02,10.90
2020,04,11,10,03,10.90
2020,04,11,10,04,10.90
2020,04,11,10,05,10.90
2020,04,11,10,06,10.90
2020,04,11,10,07,10.80
2020,04,11,10,08,10.70
2020,04,11,10,09,10.70
2020,04,11,10,10,10.70
2020,04,11,10,11,10.80
2020,04,11,10,12,10.80
2020,04,11,10,13,10.90
2020,04,11,10,14,11.00
2020,04,11,10,15,11.00
2020,04,11,10,16,11.10
2020,04,11,10,17,11.20
2020,04,11,10,18,11.30
2020,04,11,10,19,11.30
2020,04,11,10,20,11.30
2020,04,11,10,21,11.30
2020,04,11,10,22,11.30
2020,04,11,10,23,11.30
2020,04,11,10,24,11.20
2020,04,11,10,25,11.20
2020,04,11,10,26,11.20
2020,04,11,10,27,11.20
2020,04,11,10,28,11.20
2020,04,11,10,29,11.30
2020,04,11,10,30,11.30
2020,04,11,10,31,11.20
2020,04,11,10,32,11.20
2020,04,11,10,33,11.20
2020,04,11,10,34,11.10
2020,04,11,10,35,11.10
2020,04,11,10,36,11.10
2020,04,11,10,37,11.20
2020,04,11,10,38,11.20
2020,04,11,10,39,11.20
2020,04,11,10,40,11.20
2020,04,11,10,41,11.30
2020,04,11,10,42,11.30
2020,04,11,10,43,11.30
2020,04,11,10,44,11.30
2020,04,11,10,45,11.30
2020,04,11,10,46,11.30
2020,04,11,10,47,11.30
2020,04,11,10,48,11.30
2020,04,11,10,49,11.30
2020,04,11,10,50,11.30
2020,04,11,10,51,11.20
2020,04,11,10,52,11.20
2020,04,11,10,53,11.20
2020,04,11,10,54,11.10
2020,04,11,10,55,11.10
2020,04,11,10,56,11.10
2020,04,11,10,57,11.20
2020,04,11,10,58,11.20
2020,04,11,10,59,11.20
2020,04,11,11,00,11.10
2020,04,11,11,01,11.20
2020,04,11,11,02,11.20
2020,04,11,11,03,11.30
2020,04,11,11,04,11.30
2020,04,11,11,05,11.40
2020,04,11,11,06,11.40
2020,04,11,11,07,11.40
2020,04,11,11,08,11.40
2020,04,11,11,09,11.40
2020,04,11,11,10,11.50
2020,04,11,11,11,11.50
2020,04,11,11,12,11.50
2020,04,11,11,13,11.50
2020,04,11,11,14,11.60
2020,04,11,11,15,11.60
2020,04,11,11,16,11.60
2020,04,11,11,17,11.60
2020,04,11,11,18,11.70
2020,04,11,11,19,11.70
2020,04,11,11,20,11.70
2020,04,11,11,21,11.80
2020,04,11,11,22,11.80
2020,04,11,11,23,11.80
2020,04,11,11,24,11.70
2020,04,11,11,25,11.70
2020,04,11,11,26,11.70
2020,04,11,11,27,11.70
2020,04,11,11,28,11.70
2020,04,11,11,29,11.60
2020,04,11,11,30,11.60
2020,04,11,11,31,11.70
2020,04,11,11,32,11.70
2020,04,11,11,33,11.70
2020,04,11,11,34,11.60
2020,04,11,11,35,11.60
2020,04,11,11,36,11.60
2020,04,11,11,37,11.60
2020,04,11,11,38,11.60
2020,04,11,11,39,11.70
2020,04,11,11,40,11.80
2020,04,11,11,41,11.80
2020,04,11,11,42,11.90
2020,04,11,11,43,12.00
2020,04,11,11,44,12.00
2020,04,11,11,45,12.10
2020,04,11,11,46,12.20
2020,04,11,11,47,12.20
2020,04,11,11,48,12.10
2020,04,11,11,49,12.10
2020,04,11,11,50,12.00
2020,04,11,11,51,12.00
2020,04,11,11,52,11.90
2020,04,11,11,53,11.80
2020,04,11,11,54,11.80
2020,04,11,11,55,11.80
2020,04,11,11,56,11.80
2020,04,11,11,57,11.70
2020,04,11,11,58,11.70
2020,04,11,11,59,11.80
2020,04,11,12,00,11.80
2020,04,11,12,01,11.80
2020,04,11,12,02,11.80
2020,04,11,12,03,11.80
2020,04,11,12,04,11.80
2020,04,11,12,05,11.80
2020,04,11,12,06,11.80
2020,04,11,12,07,11.80
2020,04,11,12,08,11.80
2020,04,11,12,09,11.90
2020,04,11,12,10,11.90
2020,04,11,12,11,11.90
2020,04,11,12,12,11.90
2020,04,11,12,13,11.80
2020,04,11,12,14,11.80
2020,04,11,12,15,11.80
2020,04,11,12,16,11.80
2020,04,11,12,17,11.80
2020,04,11,12,18,11.80
2020,04,11,12,19,11.80
2020,04,11,12,20,11.80
2020,04,11,12,21,11.80
2020,04,11,12,22,11.80
2020,04,11,12,23,11.80
2020,04,11,12,24,11.80
2020,04,11,12,25,11.80
2020,04,11,12,26,11.80
2020,04,11,12,27,11.90
2020,04,11,12,28,12.00
2020,04,11,12,29,12.10
2020,04,11,12,30,12.20
2020,04,11,12,31,12.20
2020,04,11,12,32,12.20
2020,04,11,12,33,12.10
2020,04,11,12,34,12.10
2020,04,11,12,35,12.20
2020,04,11,12,36,12.20
2020,04,11,12,37,12.20
2020,04,11,12,38,12.30
2020,04,11,12,39,12.40
2020,04,11,12,40,12.50
2020,04,11,12,41,12.60
2020,04,11,12,42,12.60
2020,04,11,12,43,12.60
2020,04,11,12,44,12.60
2020,04,11,12,45,12.50
2020,04,11,12,46,12.40
2020,04,11,12,47,12.40
2020,04,11,12,48,12.30
2020,04,11,12,49,12.30
2020,04,11,12,50,12.40
2020,04,11,12,51,12.50
2020,04,11,12,52,12.50
2020,04,11,12,53,12.60
2020,04,11,12,54,12.60
2020,04,11,12,55,12.60
2020,04,11,12,56,12.60
2020,04,11,12,57,12.50
2020,04,11,12,58,12.40
2020,04,11,12,59,12.40
2020,04,11,13,00,12.30
2020,04,11,13,01,12.30
2020,04,11,13,02,12.30
2020,04,11,13,03,12.30
2020,04,11,13,04,12.40
2020,04,11,13,05,12.40
2020,04,11,13,06,12.50
2020,04,11,13,07,12.60
2020,04,11,13,08,12.60
2020,04,11,13,09,12.70
2020,04,11,13,10,12.70
2020,04,11,13,11,12.70
2020,04,11,13,12,12.70
2020,04,11,13,13,12.70
2020,04,11,13,14,12.70
2020,04,11,13,15,12.70
2020,04,11,13,16,12.70
2020,04,11,13,17,12.80
2020,04,11,13,18,12.80
2020,04,11,13,19,12.80
2020,04,11,13,20,12.90
2020,04,11,13,21,12.90
2020,04,11,13,22,12.90
2020,04,11,13,23,13.00
2020,04,11,13,24,13.00
2020,04,11,13,25,13.10
2020,04,11,13,26,13.10
2020,04,11,13,27,13.20
2020,04,11,13,28,13.20
2020,04,11,13,29,13.20
2020,04,11,13,30,13.10
2020,04,11,13,31,13.00
2020,04,11,13,32,13.00
2020,04,11,13,33,13.00
2020,04,11,13,34,13.00
2020,04,11,13,35,13.00
2020,04,11,13,36,13.10
2020,04,11,13,37,13.10
2020,04,11,13,38,13.10
2020,04,11,13,39,13.10
2020,04,11,13,40,13.00
2020,04,11,13,41,13.00
2020,04,11,13,42,13.10
2020,04,11,13,43,13.10
2020,04,11,13,44,13.20
2020,04,11,13,45,13.20
2020,04,11,13,46,13.20
2020,04,11,13,47,13.20
2020,04,11,13,48,13.10
2020,04,11,13,49,13.10
2020,04,11,13,50,13.20
2020,04,11,13,51,13.20
2020,04,11,13,52,13.20
2020,04,11,13,53,13.30
2020,04,11,13,54,13.30
2020,04,11,13,55,13.30
2020,04,11,13,56,13.40
2020,04,11,13,57,13.40
2020,04,11,13,58,13.50
2020,04,11,13,59,13.50
2020,04,11,14,00,13.50
2020,04,11,14,01,13.50
2020,04,11,14,02,13.50
2020,04,11,14,03,13.50
2020,04,11,14,04,13.40
2020,04,11,14,05,13.30
2020,04,11,14,06,13.30
2020,04,11,14,07,13.30
2020,04,11,14,08,13.30
2020,04,11,14,09,13.40
2020,04,11,14,10,13.40
2020,04,11,14,11,13.40
2020,04,11,14,12,13.40
2020,04,11,14,13,13.40
2020,04,11,14,14,13.40
2020,04,11,14,15,13.40
2020,04,11,14,16,13.40
2020,04,11,14,17,13.30
2020,04,11,14,18,13.30
2020,04,11,14,19,13.30
2020,04,11,14,20,13.30
2020,04,11,14,21,13.30
2020,04,11,14,22,13.30
2020,04,11,14,23,13.30
2020,04,11,14,24,13.30
2020,04,11,14,25,13.30
2020,04,11,14,26,13.30
2020,04,11,14,27,13.30
2020,04,11,14,28,13.30
2020,04,11,14,29,13.30
2020,04,11,14,30,13.40
2020,04,11,14,31,13.40
2020,04,11,14,32,13.30
2020,04,11,14,33,13.40
2020,04,11,14,34,13.50
2020,04,11,14,35,13.50
2020,04,11,14,36,13.50
2020,04,11,14,37,13.50
2020,04,11,14,38,13.50
2020,04,11,14,39,13.50
2020,04,11,14,40,13.50
2020,04,11,14,41,13.60
2020,04,11,14,42,13.60
2020,04,11,14,43,13.60
2020,04,11,14,44,13.60
2020,04,11,14,45,13.50
2020,04,11,14,46,13.50
2020,04,11,14,47,13.50
2020,04,11,14,48,13.50
2020,04,11,14,49,13.40
2020,04,11,14,50,13.40
2020,04,11,14,51,13.40
2020,04,11,14,52,13.40
2020,04,11,14,53,13.40
2020,04,11,14,54,13.40
2020,04,11,14,55,13.40
2020,04,11,14,56,13.50
2020,04,11,14,57,13.40
2020,04,11,14,58,13.40
2020,04,11,14,59,13.40
2020,04,11,15,00,13.40
2020,04,11,15,01,13.40
2020,04,11,15,02,13.40
2020,04,11,15,03,13.40
2020,04,11,15,04,13.40
2020,04,11,15,05,13.30
2020,04,11,15,06,13.30
2020,04,11,15,07,13.30
2020,04,11,15,08,13.30
2020,04,11,15,09,13.30
2020,04,11,15,10,13.30
2020,04,11,15,11,13.40
2020,04,11,15,12,13.40
2020,04,11,15,13,13.40
2020,04,11,15,14,13.40
2020,04,11,15,15,13.40
2020,04,11,15,16,13.40
2020,04,11,15,17,13.40
2020,04,11,15,18,13.40
2020,04,11,15,19,13.40
2020,04,11,15,20,13.50
2020,04,11,15,21,13.50
2020,04,11,15,22,13.50
2020,04,11,15,23,13.50
2020,04,11,15,24,13.50
2020,04,11,15,25,13.50
2020,04,11,15,26,13.50
2020,04,11,15,27,13.60
2020,04,11,15,28,13.60
2020,04,11,15,29,13.60
2020,04,11,15,30,13.60
2020,04,11,15,31,13.50
2020,04,11,15,32,13.50
2020,04,11,15,33,13.50
2020,04,11,15,34,13.50
2020,04,11,15,35,13.50
2020,04,11,15,36,13.60
2020,04,11,15,37,13.60
2020,04,11,15,38,13.60
2020,04,11,15,39,13.60
2020,04,11,15,40,13.60
2020,04,11,15,41,13.60
2020,04,11,15,42,13.60
2020,04,11,15,43,13.60
2020,04,11,15,44,13.60
2020,04,11,15,45,13.50
2020,04,11,15,46,13.50
2020,04,11,15,47,13.50
2020,04,11,15,48,13.50
2020,04,11,15,49,13.50
2020,04,11,15,50,13.50
2020,04,11,15,51,13.50
2020,04,11,15,52,13.50
2020,04,11,15,53,13.50
2020,04,11,15,54,13.50
2020,04,11,15,55,13.50
2020,04,11,15,56,13.50
2020,04,11,15,57,13.60
2020,04,11,15,58,13.60
2020,04,11,15,59,13.60
2020,04,11,16,00,13.60
2020,04,11,16,01,13.70
2020,04,11,16,02,13.70
2020,04,11,16,03,13.70
2020,04,11,16,04,13.80
2020,04,11,16,05,13.80
2020,04,11,16,06,13.80
2020,04,11,16,07,13.80
2020,04,11,16,08,13.80
2020,04,11,16,09,13.80
2020,04,11,16,10,13.80
2020,04,11,16,11,13.70
2020,04,11,16,12,13.70
2020,04,11,16,13,13.70
2020,04,11,16,14,13.70
2020,04,11,16,15,13.70
2020,04,11,16,16,13.60
2020,04,11,16,17,13.60
2020,04,11,16,18,13.60
2020,04,11,16,19,13.60
2020,04,11,16,20,13.60
2020,04,11,16,21,13.60
2020,04,11,16,22,13.70
2020,04,11,16,23,13.70
2020,04,11,16,24,13.70
2020,04,11,16,25,13.70
2020,04,11,16,26,13.80
2020,04,11,16,27,13.80
2020,04,11,16,28,13.80
2020,04,11,16,29,13.70
2020,04,11,16,30,13.70
2020,04,11,16,31,13.60
2020,04,11,16,32,13.60
2020,04,11,16,33,13.60
2020,04,11,16,34,13.60
2020,04,11,16,35,13.60
2020,04,11,16,36,13.60
2020,04,11,16,37,13.60
2020,04,11,16,38,13.60
2020,04,11,16,39,13.60
2020,04,11,16,40,13.60
2020,04,11,16,41,13.60
2020,04,11,16,42,13.50
2020,04,11,16,43,13.50
2020,04,11,16,44,13.50
2020,04,11,16,45,13.40
2020,04,11,16,46,13.40
2020,04,11,16,47,13.50
2020,04,11,16,48,13.50
2020,04,11,16,49,13.40
2020,04,11,16,50,13.40
2020,04,11,16,51,13.40
2020,04,11,16,52,13.40
2020,04,11,16,53,13.40
2020,04,11,16,54,13.40
2020,04,11,16,55,13.40
2020,04,11,16,56,13.50
2020,04,11,16,57,13.50
2020,04,11,16,58,13.50
2020,04,11,16,59,13.50
2020,04,11,17,00,13.60
2020,04,11,17,01,13.60
2020,04,11,17,02,13.60
2020,04,11,17,03,13.60
2020,04,11,17,04,13.60
2020,04,11,17,05,13.60
2020,04,11,17,06,13.60
2020,04,11,17,07,13.60
2020,04,11,17,08,13.60
2020,04,11,17,09,13.60
2020,04,11,17,10,13.60
2020,04,11,17,11,13.60
2020,04,11,17,12,13.60
2020,04,11,17,13,13.60
2020,04,11,17,14,13.50
2020,04,11,17,15,13.50
2020,04,11,17,16,13.50
2020,04,11,17,17,13.60
2020,04,11,17,18,13.60
2020,04,11,17,19,13.60
2020,04,11,17,20,13.60
2020,04,11,17,21,13.60
2020,04,11,17,22,13.60
2020,04,11,17,23,13.60
2020,04,11,17,24,13.60
2020,04,11,17,25,13.60
2020,04,11,17,26,13.60
2020,04,11,17,27,13.70
2020,04,11,17,28,13.70
2020,04,11,17,29,13.70
2020,04,11,17,30,13.70
2020,04,11,17,31,13.70
2020,04,11,17,32,13.70
2020,04,11,17,33,13.70
2020,04,11,17,34,13.70
2020,04,11,17,35,13.70
2020,04,11,17,36,13.70
2020,04,11,17,37,13.70
2020,04,11,17,38,13.70
2020,04,11,17,39,13.70
2020,04,11,17,40,13.70
2020,04,11,17,41,13.70